Flag for Saudi Arabia Weather past 2 weeks in Jeddah, Saudi Arabia

Now
84 °F

Sunny.


Feels Like: 91 °F
Forecast: 85 / 99 °F
Wind: 5 mph from Northwest

Location: Jeddah King Abdul Aziz International Airport

Current Time: Jul 31, 2014 at 7:07:39 AM

Latest Report: Jul 31, 2014 at 6:00 AM


Visibility: 10 mi

Pressure: 29.65 "Hg

Humidity: 70%

Dew point: 73 °F

Location of JeddahLocation

Historic Weather in Jeddah — Graph

°F

Jeddah temperature yesterday

Maximum temperature yesterday: 99 °F (at 12:00 PM)
Minimum temperature yesterday: 86 °F (at 6:00 AM)
Average temperature yesterday: 93 °F

Past Weeks' High & Low Weather Summary

 TemperatureHumidityPressure
High106 °F (Jul 18, 1:00 PM)84% (Jul 19, 5:00 AM)29.77 "Hg (Jul 19, 5:00 AM)
Low81 °F (Jul 22, 6:00 AM)20% (Jul 22, 7:00 PM)29.56 "Hg (Jul 30, 3:00 AM)
Average93 °F47%29.67 "Hg
* Reported Jul 16 6:00 AM — Jul 31 6:00 AM, Jeddah, Weather by CustomWeather, © 2014

Note: Actual official high and low records may vary slightly from our data, if they occured in-between our weather recording intervals... More about our weather records

Advertising

Jeddah weather history for previous 24 hours

 ConditionsComfort  
Time TempWeatherWind HumidityBarometerVisibility
6:00 AM
Jul 31
84 °FSunny.5 mph70%29.65 "Hg10 mi
5:00 AM84 °FClear.No wind70%29.62 "Hg10 mi
4:00 AM86 °FClear.No wind66%29.62 "Hg10 mi
3:00 AM86 °FClear.No wind70%29.62 "Hg10 mi
2:00 AM86 °FClear.No wind66%29.62 "Hg10 mi
1:00 AM88 °FClear.No wind52%29.65 "Hg10 mi
12:00 AM88 °FClear.No wind52%29.65 "Hg10 mi
11:00 PM
Jul 30
90 °FClear.7 mph46%29.68 "Hg10 mi
10:00 PM93 °FClear.5 mph34%29.65 "Hg10 mi
9:00 PM93 °FClear.6 mph34%29.65 "Hg10 mi
8:00 PM95 °FClear.9 mph34%29.62 "Hg10 mi
7:00 PM97 °FSunny.12 mph32%29.62 "Hg10 mi
6:00 PM99 °FSunny.12 mph29%29.59 "Hg10 mi
5:00 PM99 °FSunny.12 mph33%29.59 "Hg10 mi
4:00 PM99 °FSunny.16 mph33%29.59 "Hg10 mi
3:00 PM99 °FSunny.12 mph33%29.59 "Hg10 mi
2:00 PM99 °FSunny.13 mph35%29.62 "Hg10 mi
12:00 PM99 °FSunny.14 mph37%29.65 "Hg10 mi
11:00 AM97 °FSunny.12 mph39%29.65 "Hg10 mi
10:00 AM95 °FSunny.9 mph41%29.65 "Hg10 mi
9:00 AM93 °FSunny.7 mph49%29.65 "Hg10 mi
8:00 AM90 °FSunny.6 mph52%29.62 "Hg10 mi
7:00 AM88 °FSunny.5 mph52%29.62 "Hg10 mi
Weather by CustomWeather, © 2014

See weather overviewHow to use our weather pages